Location: Armidale
(30.5016°S, 151.6662°E)
Time: 17:53:45
(UTC+10:00)

N. Korean satellite - Visible Passes

Search period start: 26 June 2022 00:00
Search period end: 06 July 2022 00:00
Orbit: 433 x 477 km, 97.3° (Epoch: 25 June)

Date Brightness Start Highest point End Pass type
(mag) Time Alt. Az. Time Alt. Az. Time Alt. Az.
28 Jun 9.3 17:47:33 10° SSW 17:50:07 19° WSW 17:52:39 10° WNW visible
01 Jul 9.0 17:39:57 10° SSW 17:42:50 23° WSW 17:45:41 10° NW visible
03 Jul 9.8 18:07:52 10° WSW 18:08:31 10° WSW 18:09:11 10° W visible
04 Jul 8.6 17:32:11 10° SSW 17:35:19 29° WSW 17:38:23 10° NW visible
